IONOSFERA-M 3

Last updated on Mon Jun 22 2026 00:02:52 GMT+0000 (Coordinated Universal Time)

1 64876U 25155A 26172.46914425 .00000020 00000+0 28665-4 0 9994 2 64876 98.6033 134.2664 0001275 149.5064 210.6188 14.21487012 47010
UTC large
Height (km)
Speed (km/s)
/
Latitude / Longitude
Inclination (degrees)
Orbital Period (minutes)
Azimuth
Elevation
Range (km)
Doppler Factor

Next 0 passes for location: London (51.5072 / 0.1276)

No passes found over London.
IONOSFERA-M 3